Year,Month,Day,Hour,Minute,Value (Times are PST for temperature in C)
2012,08,18,00,00,19.40
2012,08,18,00,01,19.30
2012,08,18,00,02,19.30
2012,08,18,00,03,19.30
2012,08,18,00,04,19.30
2012,08,18,00,05,19.20
2012,08,18,00,06,19.20
2012,08,18,00,07,19.20
2012,08,18,00,08,19.20
2012,08,18,00,09,19.10
2012,08,18,00,10,19.10
2012,08,18,00,11,19.10
2012,08,18,00,12,19.10
2012,08,18,00,13,19.10
2012,08,18,00,14,19.10
2012,08,18,00,15,19.10
2012,08,18,00,16,19.10
2012,08,18,00,17,19.10
2012,08,18,00,18,19.10
2012,08,18,00,19,19.00
2012,08,18,00,20,18.90
2012,08,18,00,21,18.90
2012,08,18,00,22,18.90
2012,08,18,00,23,18.90
2012,08,18,00,24,18.90
2012,08,18,00,25,18.90
2012,08,18,00,26,18.90
2012,08,18,00,27,18.90
2012,08,18,00,28,18.90
2012,08,18,00,29,18.90
2012,08,18,00,30,18.80
2012,08,18,00,31,18.80
2012,08,18,00,32,18.80
2012,08,18,00,33,18.80
2012,08,18,00,34,18.80
2012,08,18,00,35,18.80
2012,08,18,00,36,18.70
2012,08,18,00,37,18.70
2012,08,18,00,38,18.70
2012,08,18,00,39,18.70
2012,08,18,00,40,18.70
2012,08,18,00,41,18.70
2012,08,18,00,42,18.60
2012,08,18,00,43,18.60
2012,08,18,00,44,18.60
2012,08,18,00,45,18.60
2012,08,18,00,46,18.60
2012,08,18,00,47,18.50
2012,08,18,00,48,18.50
2012,08,18,00,49,18.50
2012,08,18,00,50,18.50
2012,08,18,00,51,18.50
2012,08,18,00,52,18.40
2012,08,18,00,53,18.40
2012,08,18,00,54,18.40
2012,08,18,00,55,18.40
2012,08,18,00,56,18.40
2012,08,18,00,57,18.30
2012,08,18,00,58,18.30
2012,08,18,00,59,18.30
2012,08,18,01,00,18.30
2012,08,18,01,01,18.30
2012,08,18,01,02,18.20
2012,08,18,01,03,18.20
2012,08,18,01,04,18.20
2012,08,18,01,05,18.20
2012,08,18,01,06,18.20
2012,08,18,01,07,18.20
2012,08,18,01,08,18.20
2012,08,18,01,09,18.20
2012,08,18,01,10,18.20
2012,08,18,01,11,18.20
2012,08,18,01,12,18.10
2012,08,18,01,13,18.10
2012,08,18,01,14,18.10
2012,08,18,01,15,18.10
2012,08,18,01,16,18.00
2012,08,18,01,17,17.90
2012,08,18,01,18,17.90
2012,08,18,01,19,17.90
2012,08,18,01,20,17.90
2012,08,18,01,21,17.90
2012,08,18,01,22,17.90
2012,08,18,01,23,17.90
2012,08,18,01,24,17.90
2012,08,18,01,25,17.90
2012,08,18,01,26,17.90
2012,08,18,01,27,17.80
2012,08,18,01,28,17.80
2012,08,18,01,29,17.80
2012,08,18,01,30,17.80
2012,08,18,01,31,17.70
2012,08,18,01,32,17.70
2012,08,18,01,33,17.70
2012,08,18,01,34,17.70
2012,08,18,01,35,17.70
2012,08,18,01,36,17.60
2012,08,18,01,37,17.60
2012,08,18,01,38,17.60
2012,08,18,01,39,17.60
2012,08,18,01,40,17.60
2012,08,18,01,41,17.60
2012,08,18,01,42,17.60
2012,08,18,01,43,17.60
2012,08,18,01,44,17.50
2012,08,18,01,45,17.50
2012,08,18,01,46,17.50
2012,08,18,01,47,17.50
2012,08,18,01,48,17.50
2012,08,18,01,49,17.50
2012,08,18,01,50,17.50
2012,08,18,01,51,17.50
2012,08,18,01,52,17.50
2012,08,18,01,53,17.50
2012,08,18,01,54,17.50
2012,08,18,01,55,17.50
2012,08,18,01,56,17.50
2012,08,18,01,57,17.50
2012,08,18,01,58,17.40
2012,08,18,01,59,17.40
2012,08,18,02,00,17.40
2012,08,18,02,01,17.40
2012,08,18,02,02,17.40
2012,08,18,02,03,17.30
2012,08,18,02,04,17.30
2012,08,18,02,05,17.30
2012,08,18,02,06,17.30
2012,08,18,02,07,17.30
2012,08,18,02,08,17.30
2012,08,18,02,09,17.30
2012,08,18,02,10,17.30
2012,08,18,02,11,17.30
2012,08,18,02,12,17.30
2012,08,18,02,13,17.20
2012,08,18,02,14,17.20
2012,08,18,02,15,17.20
2012,08,18,02,16,17.20
2012,08,18,02,17,17.10
2012,08,18,02,18,17.10
2012,08,18,02,19,17.10
2012,08,18,02,20,17.10
2012,08,18,02,21,17.00
2012,08,18,02,22,17.00
2012,08,18,02,23,17.00
2012,08,18,02,24,17.00
2012,08,18,02,25,17.00
2012,08,18,02,26,17.00
2012,08,18,02,27,17.00
2012,08,18,02,28,17.00
2012,08,18,02,29,17.00
2012,08,18,02,30,17.00
2012,08,18,02,31,17.00
2012,08,18,02,32,17.00
2012,08,18,02,33,17.00
2012,08,18,02,34,17.00
2012,08,18,02,35,16.90
2012,08,18,02,36,16.90
2012,08,18,02,37,16.90
2012,08,18,02,38,16.90
2012,08,18,02,39,16.90
2012,08,18,02,40,16.90
2012,08,18,02,41,16.90
2012,08,18,02,42,16.90
2012,08,18,02,43,16.90
2012,08,18,02,44,16.90
2012,08,18,02,45,16.90
2012,08,18,02,46,16.90
2012,08,18,02,47,16.90
2012,08,18,02,48,16.90
2012,08,18,02,49,16.90
2012,08,18,02,50,16.80
2012,08,18,02,51,16.80
2012,08,18,02,52,16.80
2012,08,18,02,53,16.80
2012,08,18,02,54,16.80
2012,08,18,02,55,16.80
2012,08,18,02,56,16.80
2012,08,18,02,57,16.80
2012,08,18,02,58,16.70
2012,08,18,02,59,16.70
2012,08,18,03,00,16.70
2012,08,18,03,01,16.80
2012,08,18,03,02,16.80
2012,08,18,03,03,16.80
2012,08,18,03,04,16.90
2012,08,18,03,05,16.90
2012,08,18,03,06,16.90
2012,08,18,03,07,17.00
2012,08,18,03,08,17.00
2012,08,18,03,09,17.00
2012,08,18,03,10,17.00
2012,08,18,03,11,17.00
2012,08,18,03,12,17.00
2012,08,18,03,13,17.00
2012,08,18,03,14,16.90
2012,08,18,03,15,16.90
2012,08,18,03,16,16.90
2012,08,18,03,17,16.90
2012,08,18,03,18,16.90
2012,08,18,03,19,16.80
2012,08,18,03,20,16.80
2012,08,18,03,21,16.80
2012,08,18,03,22,16.80
2012,08,18,03,23,16.70
2012,08,18,03,24,16.70
2012,08,18,03,25,16.70
2012,08,18,03,26,16.70
2012,08,18,03,27,16.70
2012,08,18,03,28,16.70
2012,08,18,03,29,16.70
2012,08,18,03,30,16.70
2012,08,18,03,31,16.70
2012,08,18,03,32,16.70
2012,08,18,03,33,16.70
2012,08,18,03,34,16.70
2012,08,18,03,35,16.70
2012,08,18,03,36,16.60
2012,08,18,03,37,16.60
2012,08,18,03,38,16.60
2012,08,18,03,39,16.60
2012,08,18,03,40,16.60
2012,08,18,03,41,16.60
2012,08,18,03,42,16.50
2012,08,18,03,43,16.40
2012,08,18,03,44,16.40
2012,08,18,03,45,16.40
2012,08,18,03,46,16.40
2012,08,18,03,47,16.40
2012,08,18,03,48,16.40
2012,08,18,03,49,16.40
2012,08,18,03,50,16.40
2012,08,18,03,51,16.40
2012,08,18,03,52,16.40
2012,08,18,03,53,16.40
2012,08,18,03,54,16.40
2012,08,18,03,55,16.30
2012,08,18,03,56,16.30
2012,08,18,03,57,16.30
2012,08,18,03,58,16.30
2012,08,18,03,59,16.30
2012,08,18,04,00,16.30
2012,08,18,04,01,16.20
2012,08,18,04,02,16.20
2012,08,18,04,03,16.20
2012,08,18,04,04,16.20
2012,08,18,04,05,16.20
2012,08,18,04,06,16.20
2012,08,18,04,07,16.20
2012,08,18,04,08,16.10
2012,08,18,04,09,16.10
2012,08,18,04,10,16.10
2012,08,18,04,11,16.10
2012,08,18,04,12,16.10
2012,08,18,04,13,16.10
2012,08,18,04,14,16.10
2012,08,18,04,15,16.10
2012,08,18,04,16,16.10
2012,08,18,04,17,16.10
2012,08,18,04,18,16.10
2012,08,18,04,19,16.00
2012,08,18,04,20,15.90
2012,08,18,04,21,15.90
2012,08,18,04,22,15.90
2012,08,18,04,23,15.90
2012,08,18,04,24,15.90
2012,08,18,04,25,15.80
2012,08,18,04,26,15.80
2012,08,18,04,27,15.80
2012,08,18,04,28,15.80
2012,08,18,04,29,15.80
2012,08,18,04,30,15.80
2012,08,18,04,31,15.80
2012,08,18,04,32,15.80
2012,08,18,04,33,15.80
2012,08,18,04,34,15.80
2012,08,18,04,35,15.80
2012,08,18,04,36,15.80
2012,08,18,04,37,15.80
2012,08,18,04,38,15.80
2012,08,18,04,39,15.70
2012,08,18,04,40,15.70
2012,08,18,04,41,15.70
2012,08,18,04,42,15.70
2012,08,18,04,43,15.70
2012,08,18,04,44,15.70
2012,08,18,04,45,15.70
2012,08,18,04,46,15.70
2012,08,18,04,47,15.70
2012,08,18,04,48,15.70
2012,08,18,04,49,15.80
2012,08,18,04,50,15.80
2012,08,18,04,51,15.80
2012,08,18,04,52,15.80
2012,08,18,04,53,15.80
2012,08,18,04,54,15.90
2012,08,18,04,55,16.00
2012,08,18,04,56,16.10
2012,08,18,04,57,16.10
2012,08,18,04,58,16.10
2012,08,18,04,59,16.10
2012,08,18,05,00,16.20
2012,08,18,05,01,16.30
2012,08,18,05,02,16.40
2012,08,18,05,03,16.40
2012,08,18,05,04,16.50
2012,08,18,05,05,16.60
2012,08,18,05,06,16.70
2012,08,18,05,07,16.70
2012,08,18,05,08,16.80
2012,08,18,05,09,16.80
2012,08,18,05,10,16.90
2012,08,18,05,11,16.90
2012,08,18,05,12,17.00
2012,08,18,05,13,17.10
2012,08,18,05,14,17.20
2012,08,18,05,15,17.20
2012,08,18,05,16,17.30
2012,08,18,05,17,17.30
2012,08,18,05,18,17.30
2012,08,18,05,19,17.40
2012,08,18,05,20,17.40
2012,08,18,05,21,17.40
2012,08,18,05,22,17.40
2012,08,18,05,23,17.40
2012,08,18,05,24,17.40
2012,08,18,05,25,17.40
2012,08,18,05,26,17.40
2012,08,18,05,27,17.40
2012,08,18,05,28,17.40
2012,08,18,05,29,17.40
2012,08,18,05,30,17.40
2012,08,18,05,31,17.30
2012,08,18,05,32,17.30
2012,08,18,05,33,17.30
2012,08,18,05,34,17.30
2012,08,18,05,35,17.30
2012,08,18,05,36,17.30
2012,08,18,05,37,17.30
2012,08,18,05,38,17.30
2012,08,18,05,39,17.30
2012,08,18,05,40,17.30
2012,08,18,05,41,17.30
2012,08,18,05,42,17.30
2012,08,18,05,43,17.20
2012,08,18,05,44,17.20
2012,08,18,05,45,17.10
2012,08,18,05,46,17.10
2012,08,18,05,47,17.10
2012,08,18,05,48,17.00
2012,08,18,05,49,17.00
2012,08,18,05,50,17.00
2012,08,18,05,51,16.90
2012,08,18,05,52,16.90
2012,08,18,05,53,16.80
2012,08,18,05,54,16.80
2012,08,18,05,55,16.70
2012,08,18,05,56,16.70
2012,08,18,05,57,16.70
2012,08,18,05,58,16.70
2012,08,18,05,59,16.70
2012,08,18,06,00,16.60
2012,08,18,06,01,16.60
2012,08,18,06,02,16.50
2012,08,18,06,03,16.40
2012,08,18,06,04,16.40
2012,08,18,06,05,16.40
2012,08,18,06,06,16.30
2012,08,18,06,07,16.30
2012,08,18,06,08,16.20
2012,08,18,06,09,16.10
2012,08,18,06,10,16.10
2012,08,18,06,11,16.00
2012,08,18,06,12,15.90
2012,08,18,06,13,15.90
2012,08,18,06,14,15.80
2012,08,18,06,15,15.80
2012,08,18,06,16,15.80
2012,08,18,06,17,15.80
2012,08,18,06,18,15.80
2012,08,18,06,19,15.80
2012,08,18,06,20,15.80
2012,08,18,06,21,15.80
2012,08,18,06,22,15.80
2012,08,18,06,23,15.80
2012,08,18,06,24,15.80
2012,08,18,06,25,15.80
2012,08,18,06,26,15.90
2012,08,18,06,27,15.90
2012,08,18,06,28,15.90
2012,08,18,06,29,15.90
2012,08,18,06,30,16.00
2012,08,18,06,31,16.10
2012,08,18,06,32,16.10
2012,08,18,06,33,16.10
2012,08,18,06,34,16.20
2012,08,18,06,35,16.20
2012,08,18,06,36,16.30
2012,08,18,06,37,16.40
2012,08,18,06,38,16.40
2012,08,18,06,39,16.50
2012,08,18,06,40,16.60
2012,08,18,06,41,16.60
2012,08,18,06,42,16.60
2012,08,18,06,43,16.70
2012,08,18,06,44,16.70
2012,08,18,06,45,16.70
2012,08,18,06,46,16.70
2012,08,18,06,47,16.70
2012,08,18,06,48,16.70
2012,08,18,06,49,16.70
2012,08,18,06,50,16.70
2012,08,18,06,51,16.70
2012,08,18,06,52,16.70
2012,08,18,06,53,16.70
2012,08,18,06,54,16.80
2012,08,18,06,55,16.80
2012,08,18,06,56,16.90
2012,08,18,06,57,16.90
2012,08,18,06,58,16.90
2012,08,18,06,59,17.00
2012,08,18,07,00,17.00
2012,08,18,07,01,17.00
2012,08,18,07,02,17.00
2012,08,18,07,03,17.10
2012,08,18,07,04,17.10
2012,08,18,07,05,17.10
2012,08,18,07,06,17.20
2012,08,18,07,07,17.20
2012,08,18,07,08,17.20
2012,08,18,07,09,17.20
2012,08,18,07,10,17.20
2012,08,18,07,11,17.20
2012,08,18,07,12,17.20
2012,08,18,07,13,17.20
2012,08,18,07,14,17.20
2012,08,18,07,15,17.20
2012,08,18,07,16,17.20
2012,08,18,07,17,17.30
2012,08,18,07,18,17.30
2012,08,18,07,19,17.30
2012,08,18,07,20,17.30
2012,08,18,07,21,17.30
2012,08,18,07,22,17.20
2012,08,18,07,23,17.20
2012,08,18,07,24,17.20
2012,08,18,07,25,17.20
2012,08,18,07,26,17.20
2012,08,18,07,27,17.20
2012,08,18,07,28,17.20
2012,08,18,07,29,17.20
2012,08,18,07,30,17.20
2012,08,18,07,31,17.20
2012,08,18,07,32,17.20
2012,08,18,07,33,17.20
2012,08,18,07,34,17.20
2012,08,18,07,35,17.20
2012,08,18,07,36,17.20
2012,08,18,07,37,17.20
2012,08,18,07,38,17.20
2012,08,18,07,39,17.30
2012,08,18,07,40,17.20
2012,08,18,07,41,17.20
2012,08,18,07,42,17.20
2012,08,18,07,43,17.20
2012,08,18,07,44,17.20
2012,08,18,07,45,17.20
2012,08,18,07,46,17.20
2012,08,18,07,47,17.20
2012,08,18,07,48,17.20
2012,08,18,07,49,17.30
2012,08,18,07,50,17.30
2012,08,18,07,51,17.30
2012,08,18,07,52,17.40
2012,08,18,07,53,17.50
2012,08,18,07,54,17.50
2012,08,18,07,55,17.60
2012,08,18,07,56,17.70
2012,08,18,07,57,17.80
2012,08,18,07,58,17.80
2012,08,18,07,59,17.90
2012,08,18,08,00,17.90
2012,08,18,08,01,17.90
2012,08,18,08,02,17.90
2012,08,18,08,03,18.00
2012,08,18,08,04,18.10
2012,08,18,08,05,18.10
2012,08,18,08,06,18.10
2012,08,18,08,07,18.20
2012,08,18,08,08,18.20
2012,08,18,08,09,18.20
2012,08,18,08,10,18.20
2012,08,18,08,11,18.20
2012,08,18,08,12,18.20
2012,08,18,08,13,18.20
2012,08,18,08,14,18.20
2012,08,18,08,15,18.20
2012,08,18,08,16,18.30
2012,08,18,08,17,18.40
2012,08,18,08,18,18.50
2012,08,18,08,19,18.50
2012,08,18,08,20,18.60
2012,08,18,08,21,18.60
2012,08,18,08,22,18.70
2012,08,18,08,23,18.80
2012,08,18,08,24,18.90
2012,08,18,08,25,18.90
2012,08,18,08,26,19.00
2012,08,18,08,27,19.10
2012,08,18,08,28,19.10
2012,08,18,08,29,19.10
2012,08,18,08,30,19.10
2012,08,18,08,31,19.20
2012,08,18,08,32,19.20
2012,08,18,08,33,19.30
2012,08,18,08,34,19.30
2012,08,18,08,35,19.30
2012,08,18,08,36,19.40
2012,08,18,08,37,19.40
2012,08,18,08,38,19.50
2012,08,18,08,39,19.50
2012,08,18,08,40,19.60
2012,08,18,08,41,19.60
2012,08,18,08,42,19.70
2012,08,18,08,43,19.80
2012,08,18,08,44,19.80
2012,08,18,08,45,19.90
2012,08,18,08,46,19.90
2012,08,18,08,47,19.90
2012,08,18,08,48,19.90
2012,08,18,08,49,20.00
2012,08,18,08,50,20.10
2012,08,18,08,51,20.10
2012,08,18,08,52,20.20
2012,08,18,08,53,20.20
2012,08,18,08,54,20.20
2012,08,18,08,55,20.20
2012,08,18,08,56,20.30
2012,08,18,08,57,20.30
2012,08,18,08,58,20.30
2012,08,18,08,59,20.40
2012,08,18,09,00,20.50
2012,08,18,09,01,20.50
2012,08,18,09,02,20.50
2012,08,18,09,03,20.60
2012,08,18,09,04,20.60
2012,08,18,09,05,20.50
2012,08,18,09,06,20.50
2012,08,18,09,07,20.50
2012,08,18,09,08,20.60
2012,08,18,09,09,20.60
2012,08,18,09,10,20.60
2012,08,18,09,11,20.60
2012,08,18,09,12,20.60
2012,08,18,09,13,20.60
2012,08,18,09,14,20.70
2012,08,18,09,15,20.70
2012,08,18,09,16,20.70
2012,08,18,09,17,20.60
2012,08,18,09,18,20.50
2012,08,18,09,19,20.30
2012,08,18,09,20,20.20
2012,08,18,09,21,20.10
2012,08,18,09,22,19.90
2012,08,18,09,23,19.90
2012,08,18,09,24,19.90
2012,08,18,09,25,19.90
2012,08,18,09,26,19.90
2012,08,18,09,27,19.90
2012,08,18,09,28,19.90
2012,08,18,09,29,19.90
2012,08,18,09,30,19.90
2012,08,18,09,31,19.90
2012,08,18,09,32,20.00
2012,08,18,09,33,20.10
2012,08,18,09,34,19.90
2012,08,18,09,35,19.90
2012,08,18,09,36,19.90
2012,08,18,09,37,20.00
2012,08,18,09,38,20.10
2012,08,18,09,39,20.10
2012,08,18,09,40,20.10
2012,08,18,09,41,20.10
2012,08,18,09,42,20.20
2012,08,18,09,43,20.20
2012,08,18,09,44,20.30
2012,08,18,09,45,20.30
2012,08,18,09,46,20.40
2012,08,18,09,47,20.50
2012,08,18,09,48,20.50
2012,08,18,09,49,20.60
2012,08,18,09,50,20.60
2012,08,18,09,51,20.70
2012,08,18,09,52,20.80
2012,08,18,09,53,20.80
2012,08,18,09,54,21.00
2012,08,18,09,55,21.10
2012,08,18,09,56,21.20
2012,08,18,09,57,21.30
2012,08,18,09,58,21.30
2012,08,18,09,59,21.30
2012,08,18,10,00,21.10
2012,08,18,10,01,21.00
2012,08,18,10,02,20.90
2012,08,18,10,03,20.90
2012,08,18,10,04,20.80
2012,08,18,10,05,20.80
2012,08,18,10,06,20.80
2012,08,18,10,07,20.90
2012,08,18,10,08,20.90
2012,08,18,10,09,21.00
2012,08,18,10,10,21.10
2012,08,18,10,11,21.30
2012,08,18,10,12,21.40
2012,08,18,10,13,21.50
2012,08,18,10,14,21.60
2012,08,18,10,15,21.80
2012,08,18,10,16,21.90
2012,08,18,10,17,21.90
2012,08,18,10,18,21.70
2012,08,18,10,19,21.60
2012,08,18,10,20,21.60
2012,08,18,10,21,21.50
2012,08,18,10,22,21.40
2012,08,18,10,23,21.40
2012,08,18,10,24,21.50
2012,08,18,10,25,21.60
2012,08,18,10,26,21.60
2012,08,18,10,27,21.70
2012,08,18,10,28,21.80
2012,08,18,10,29,22.00
2012,08,18,10,30,22.10
2012,08,18,10,31,22.20
2012,08,18,10,32,22.20
2012,08,18,10,33,22.30
2012,08,18,10,34,22.30
2012,08,18,10,35,22.30
2012,08,18,10,36,22.30
2012,08,18,10,37,22.40
2012,08,18,10,38,22.40
2012,08,18,10,39,22.40
2012,08,18,10,40,22.30
2012,08,18,10,41,22.30
2012,08,18,10,42,22.30
2012,08,18,10,43,22.40
2012,08,18,10,44,22.40
2012,08,18,10,45,22.40
2012,08,18,10,46,22.60
2012,08,18,10,47,22.70
2012,08,18,10,48,22.80
2012,08,18,10,49,22.90
2012,08,18,10,50,22.90
2012,08,18,10,51,22.90
2012,08,18,10,52,22.90
2012,08,18,10,53,22.80
2012,08,18,10,54,22.80
2012,08,18,10,55,22.80
2012,08,18,10,56,22.70
2012,08,18,10,57,22.60
2012,08,18,10,58,22.60
2012,08,18,10,59,22.60
2012,08,18,11,00,22.70
2012,08,18,11,01,22.80
2012,08,18,11,02,22.90
2012,08,18,11,03,22.90
2012,08,18,11,04,23.00
2012,08,18,11,05,23.10
2012,08,18,11,06,23.10
2012,08,18,11,07,22.90
2012,08,18,11,08,22.90
2012,08,18,11,09,22.90
2012,08,18,11,10,22.90
2012,08,18,11,11,22.90
2012,08,18,11,12,22.90
2012,08,18,11,13,22.80
2012,08,18,11,14,22.80
2012,08,18,11,15,22.90
2012,08,18,11,16,22.90
2012,08,18,11,17,22.90
2012,08,18,11,18,22.90
2012,08,18,11,19,22.90
2012,08,18,11,20,22.90
2012,08,18,11,21,22.90
2012,08,18,11,22,22.90
2012,08,18,11,23,23.00
2012,08,18,11,24,23.10
2012,08,18,11,25,23.10
2012,08,18,11,26,23.20
2012,08,18,11,27,23.20
2012,08,18,11,28,23.20
2012,08,18,11,29,23.20
2012,08,18,11,30,23.20
2012,08,18,11,31,23.20
2012,08,18,11,32,23.30
2012,08,18,11,33,23.30
2012,08,18,11,34,23.40
2012,08,18,11,35,23.40
2012,08,18,11,36,23.40
2012,08,18,11,37,23.40
2012,08,18,11,38,23.40
2012,08,18,11,39,23.40
2012,08,18,11,40,23.30
2012,08,18,11,41,23.10
2012,08,18,11,42,22.90
2012,08,18,11,43,22.90
2012,08,18,11,44,22.90
2012,08,18,11,45,22.80
2012,08,18,11,46,22.80
2012,08,18,11,47,22.90
2012,08,18,11,48,22.80
2012,08,18,11,49,22.80
2012,08,18,11,50,22.70
2012,08,18,11,51,22.60
2012,08,18,11,52,22.60
2012,08,18,11,53,22.60
2012,08,18,11,54,22.70
2012,08,18,11,55,22.80
2012,08,18,11,56,22.90
2012,08,18,11,57,22.90
2012,08,18,11,58,22.90
2012,08,18,11,59,22.90
2012,08,18,12,00,22.90
2012,08,18,12,01,22.90
2012,08,18,12,02,22.90
2012,08,18,12,03,22.90
2012,08,18,12,04,22.90
2012,08,18,12,05,22.90
2012,08,18,12,06,22.90
2012,08,18,12,07,22.90
2012,08,18,12,08,22.80
2012,08,18,12,09,22.80
2012,08,18,12,10,22.80
2012,08,18,12,11,22.90
2012,08,18,12,12,22.90
2012,08,18,12,13,22.90
2012,08,18,12,14,23.00
2012,08,18,12,15,23.10
2012,08,18,12,16,23.10
2012,08,18,12,17,23.10
2012,08,18,12,18,23.10
2012,08,18,12,19,23.20
2012,08,18,12,20,23.10
2012,08,18,12,21,23.10
2012,08,18,12,22,23.00
2012,08,18,12,23,22.90
2012,08,18,12,24,22.90
2012,08,18,12,25,22.70
2012,08,18,12,26,22.40
2012,08,18,12,27,22.20
2012,08,18,12,28,22.10
2012,08,18,12,29,21.90
2012,08,18,12,30,21.80
2012,08,18,12,31,21.70
2012,08,18,12,32,21.60
2012,08,18,12,33,21.60
2012,08,18,12,34,21.60
2012,08,18,12,35,21.50
2012,08,18,12,36,21.40
2012,08,18,12,37,21.40
2012,08,18,12,38,21.40
2012,08,18,12,39,21.40
2012,08,18,12,40,21.50
2012,08,18,12,41,21.50
2012,08,18,12,42,21.40
2012,08,18,12,43,21.40
2012,08,18,12,44,21.40
2012,08,18,12,45,21.40
2012,08,18,12,46,21.40
2012,08,18,12,47,21.40
2012,08,18,12,48,21.40
2012,08,18,12,49,21.40
2012,08,18,12,50,21.30
2012,08,18,12,51,21.30
2012,08,18,12,52,21.40
2012,08,18,12,53,21.40
2012,08,18,12,54,21.50
2012,08,18,12,55,21.60
2012,08,18,12,56,21.60
2012,08,18,12,57,21.70
2012,08,18,12,58,21.80
2012,08,18,12,59,21.90
2012,08,18,13,00,22.00
2012,08,18,13,01,22.00
2012,08,18,13,02,22.10
2012,08,18,13,03,22.20
2012,08,18,13,04,22.30
2012,08,18,13,05,22.30
2012,08,18,13,06,22.40
2012,08,18,13,07,22.50
2012,08,18,13,08,22.50
2012,08,18,13,09,22.60
2012,08,18,13,10,22.60
2012,08,18,13,11,22.60
2012,08,18,13,12,22.50
2012,08,18,13,13,22.50
2012,08,18,13,14,22.50
2012,08,18,13,15,22.50
2012,08,18,13,16,22.60
2012,08,18,13,17,22.60
2012,08,18,13,18,22.50
2012,08,18,13,19,22.50
2012,08,18,13,20,22.50
2012,08,18,13,21,22.50
2012,08,18,13,22,22.50
2012,08,18,13,23,22.50
2012,08,18,13,24,22.60
2012,08,18,13,25,22.70
2012,08,18,13,26,22.70
2012,08,18,13,27,22.80
2012,08,18,13,28,22.80
2012,08,18,13,29,22.90
2012,08,18,13,30,22.80
2012,08,18,13,31,22.80
2012,08,18,13,32,22.80
2012,08,18,13,33,22.90
2012,08,18,13,34,22.90
2012,08,18,13,35,22.90
2012,08,18,13,36,22.90
2012,08,18,13,37,22.90
2012,08,18,13,38,22.90
2012,08,18,13,39,22.90
2012,08,18,13,40,22.90
2012,08,18,13,41,22.90
2012,08,18,13,42,22.80
2012,08,18,13,43,22.80
2012,08,18,13,44,22.80
2012,08,18,13,45,22.80
2012,08,18,13,46,22.80
2012,08,18,13,47,22.80
2012,08,18,13,48,22.80
2012,08,18,13,49,22.70
2012,08,18,13,50,22.70
2012,08,18,13,51,22.70
2012,08,18,13,52,22.60
2012,08,18,13,53,22.60
2012,08,18,13,54,22.60
2012,08,18,13,55,22.60
2012,08,18,13,56,22.60
2012,08,18,13,57,22.60
2012,08,18,13,58,22.60
2012,08,18,13,59,22.60
2012,08,18,14,00,22.50
2012,08,18,14,01,22.40
2012,08,18,14,02,22.30
2012,08,18,14,03,22.20
2012,08,18,14,04,22.20
2012,08,18,14,05,22.10
2012,08,18,14,06,22.10
2012,08,18,14,07,22.10
2012,08,18,14,08,22.10
2012,08,18,14,09,22.10
2012,08,18,14,10,22.10
2012,08,18,14,11,22.10
2012,08,18,14,12,22.10
2012,08,18,14,13,22.10
2012,08,18,14,14,22.10
2012,08,18,14,15,22.20
2012,08,18,14,16,22.20
2012,08,18,14,17,22.30
2012,08,18,14,18,22.30
2012,08,18,14,19,22.30
2012,08,18,14,20,22.30
2012,08,18,14,21,22.40
2012,08,18,14,22,22.40
2012,08,18,14,23,22.40
2012,08,18,14,24,22.40
2012,08,18,14,25,22.40
2012,08,18,14,26,22.40
2012,08,18,14,27,22.30
2012,08,18,14,28,22.30
2012,08,18,14,29,22.30
2012,08,18,14,30,22.30
2012,08,18,14,31,22.30
2012,08,18,14,32,22.20
2012,08,18,14,33,22.20
2012,08,18,14,34,22.20
2012,08,18,14,35,22.10
2012,08,18,14,36,22.10
2012,08,18,14,37,22.10
2012,08,18,14,38,22.00
2012,08,18,14,39,21.90
2012,08,18,14,40,21.80
2012,08,18,14,41,21.70
2012,08,18,14,42,21.70
2012,08,18,14,43,21.60
2012,08,18,14,44,21.50
2012,08,18,14,45,21.40
2012,08,18,14,46,21.30
2012,08,18,14,47,21.20
2012,08,18,14,48,21.10
2012,08,18,14,49,21.00
2012,08,18,14,50,21.00
2012,08,18,14,51,20.80
2012,08,18,14,52,20.80
2012,08,18,14,53,20.70
2012,08,18,14,54,20.60
2012,08,18,14,55,20.60
2012,08,18,14,56,20.60
2012,08,18,14,57,20.50
2012,08,18,14,58,20.50
2012,08,18,14,59,20.50
2012,08,18,15,00,20.40
2012,08,18,15,01,20.40
2012,08,18,15,02,20.40
2012,08,18,15,03,20.40
2012,08,18,15,04,20.50
2012,08,18,15,05,20.50
2012,08,18,15,06,20.50
2012,08,18,15,07,20.40
2012,08,18,15,08,20.40
2012,08,18,15,09,20.40
2012,08,18,15,10,20.50
2012,08,18,15,11,20.50
2012,08,18,15,12,20.50
2012,08,18,15,13,20.60
2012,08,18,15,14,20.60
2012,08,18,15,15,20.70
2012,08,18,15,16,20.80
2012,08,18,15,17,20.90
2012,08,18,15,18,21.00
2012,08,18,15,19,21.10
2012,08,18,15,20,21.10
2012,08,18,15,21,21.20
2012,08,18,15,22,21.30
2012,08,18,15,23,21.30
2012,08,18,15,24,21.30
2012,08,18,15,25,21.30
2012,08,18,15,26,21.30
2012,08,18,15,27,21.40
2012,08,18,15,28,21.40
2012,08,18,15,29,21.40
2012,08,18,15,30,21.30
2012,08,18,15,31,21.30
2012,08,18,15,32,21.30
2012,08,18,15,33,21.30
2012,08,18,15,34,21.30
2012,08,18,15,35,21.30
2012,08,18,15,36,21.30
2012,08,18,15,37,21.30
2012,08,18,15,38,21.30
2012,08,18,15,39,21.40
2012,08,18,15,40,21.40
2012,08,18,15,41,21.40
2012,08,18,15,42,21.40
2012,08,18,15,43,21.40
2012,08,18,15,44,21.50
2012,08,18,15,45,21.60
2012,08,18,15,46,21.60
2012,08,18,15,47,21.60
2012,08,18,15,48,21.60
2012,08,18,15,49,21.70
2012,08,18,15,50,21.70
2012,08,18,15,51,21.80
2012,08,18,15,52,21.90
2012,08,18,15,53,21.90
2012,08,18,15,54,21.90
2012,08,18,15,55,21.90
2012,08,18,15,56,22.00
2012,08,18,15,57,22.00
2012,08,18,15,58,22.00
2012,08,18,15,59,22.00
2012,08,18,16,00,22.00
2012,08,18,16,01,22.00
2012,08,18,16,02,22.10
2012,08,18,16,03,22.10
2012,08,18,16,04,22.00
2012,08,18,16,05,22.00
2012,08,18,16,06,21.90
2012,08,18,16,07,21.90
2012,08,18,16,08,21.80
2012,08,18,16,09,21.80
2012,08,18,16,10,21.80
2012,08,18,16,11,21.80
2012,08,18,16,12,21.80
2012,08,18,16,13,21.80
2012,08,18,16,14,21.80
2012,08,18,16,15,21.80
2012,08,18,16,16,21.80
2012,08,18,16,17,21.80
2012,08,18,16,18,21.80
2012,08,18,16,19,21.90
2012,08,18,16,20,21.90
2012,08,18,16,21,21.90
2012,08,18,16,22,21.90
2012,08,18,16,23,21.90
2012,08,18,16,24,21.90
2012,08,18,16,25,21.90
2012,08,18,16,26,21.90
2012,08,18,16,27,21.90
2012,08,18,16,28,21.90
2012,08,18,16,29,21.90
2012,08,18,16,30,21.90
2012,08,18,16,31,21.90
2012,08,18,16,32,22.00
2012,08,18,16,33,22.00
2012,08,18,16,34,22.00
2012,08,18,16,35,22.00
2012,08,18,16,36,21.90
2012,08,18,16,37,21.90
2012,08,18,16,38,22.00
2012,08,18,16,39,22.00
2012,08,18,16,40,22.00
2012,08,18,16,41,22.10
2012,08,18,16,42,22.10
2012,08,18,16,43,22.10
2012,08,18,16,44,22.20
2012,08,18,16,45,22.20
2012,08,18,16,46,22.20
2012,08,18,16,47,22.20
2012,08,18,16,48,22.20
2012,08,18,16,49,22.10
2012,08,18,16,50,22.10
2012,08,18,16,51,22.00
2012,08,18,16,52,22.00
2012,08,18,16,53,21.90
2012,08,18,16,54,21.90
2012,08,18,16,55,21.90
2012,08,18,16,56,21.80
2012,08,18,16,57,21.80
2012,08,18,16,58,21.80
2012,08,18,16,59,21.80
2012,08,18,17,00,21.80
2012,08,18,17,01,21.80
2012,08,18,17,02,21.80
2012,08,18,17,03,21.80
2012,08,18,17,04,21.80
2012,08,18,17,05,21.80
2012,08,18,17,06,21.80
2012,08,18,17,07,21.80
2012,08,18,17,08,21.80
2012,08,18,17,09,21.80
2012,08,18,17,10,21.90
2012,08,18,17,11,21.90
2012,08,18,17,12,22.00
2012,08,18,17,13,22.00
2012,08,18,17,14,22.00
2012,08,18,17,15,22.00
2012,08,18,17,16,22.00
2012,08,18,17,17,22.00
2012,08,18,17,18,21.90
2012,08,18,17,19,21.70